Year,Month,Day,Hour,Minute,Value (Times are PST for temperature in C)
2014,12,18,00,00,5.90
2014,12,18,00,01,5.90
2014,12,18,00,02,6.00
2014,12,18,00,03,5.90
2014,12,18,00,04,6.00
2014,12,18,00,05,6.00
2014,12,18,00,06,6.00
2014,12,18,00,07,6.00
2014,12,18,00,08,6.00
2014,12,18,00,09,6.00
2014,12,18,00,10,6.00
2014,12,18,00,11,6.00
2014,12,18,00,12,6.00
2014,12,18,00,13,5.90
2014,12,18,00,14,5.90
2014,12,18,00,15,5.90
2014,12,18,00,16,5.90
2014,12,18,00,17,5.90
2014,12,18,00,18,5.90
2014,12,18,00,19,5.90
2014,12,18,00,20,5.90
2014,12,18,00,21,5.90
2014,12,18,00,22,5.90
2014,12,18,00,23,5.90
2014,12,18,00,24,5.90
2014,12,18,00,25,5.90
2014,12,18,00,26,5.90
2014,12,18,00,27,5.90
2014,12,18,00,28,5.90
2014,12,18,00,29,5.90
2014,12,18,00,30,5.90
2014,12,18,00,31,5.90
2014,12,18,00,32,5.90
2014,12,18,00,33,5.90
2014,12,18,00,34,5.90
2014,12,18,00,35,5.90
2014,12,18,00,36,5.90
2014,12,18,00,37,5.90
2014,12,18,00,38,5.90
2014,12,18,00,39,5.90
2014,12,18,00,40,5.90
2014,12,18,00,41,5.90
2014,12,18,00,42,5.90
2014,12,18,00,43,5.90
2014,12,18,00,44,5.90
2014,12,18,00,45,5.90
2014,12,18,00,46,5.90
2014,12,18,00,47,5.90
2014,12,18,00,48,5.90
2014,12,18,00,49,5.90
2014,12,18,00,50,5.90
2014,12,18,00,51,5.90
2014,12,18,00,52,5.90
2014,12,18,00,53,5.90
2014,12,18,00,54,5.90
2014,12,18,00,55,5.90
2014,12,18,00,56,5.90
2014,12,18,00,57,5.90
2014,12,18,00,58,5.90
2014,12,18,00,59,5.90
2014,12,18,01,00,5.90
2014,12,18,01,01,5.90
2014,12,18,01,02,5.90
2014,12,18,01,03,5.90
2014,12,18,01,04,5.90
2014,12,18,01,05,5.90
2014,12,18,01,06,5.90
2014,12,18,01,07,5.90
2014,12,18,01,08,5.90
2014,12,18,01,09,5.90
2014,12,18,01,10,5.90
2014,12,18,01,11,5.90
2014,12,18,01,12,5.90
2014,12,18,01,13,5.80
2014,12,18,01,14,5.80
2014,12,18,01,15,5.80
2014,12,18,01,16,5.80
2014,12,18,01,17,5.80
2014,12,18,01,18,5.80
2014,12,18,01,19,5.80
2014,12,18,01,20,5.80
2014,12,18,01,21,5.80
2014,12,18,01,22,5.80
2014,12,18,01,23,5.80
2014,12,18,01,24,5.80
2014,12,18,01,25,5.80
2014,12,18,01,26,5.80
2014,12,18,01,27,5.80
2014,12,18,01,28,5.80
2014,12,18,01,29,5.80
2014,12,18,01,30,5.80
2014,12,18,01,31,5.80
2014,12,18,01,32,5.80
2014,12,18,01,33,5.80
2014,12,18,01,34,5.80
2014,12,18,01,35,5.80
2014,12,18,01,36,5.80
2014,12,18,01,37,5.80
2014,12,18,01,38,5.80
2014,12,18,01,39,5.80
2014,12,18,01,40,5.80
2014,12,18,01,41,5.80
2014,12,18,01,42,5.80
2014,12,18,01,43,5.80
2014,12,18,01,44,5.80
2014,12,18,01,45,5.80
2014,12,18,01,46,5.80
2014,12,18,01,47,5.80
2014,12,18,01,48,5.80
2014,12,18,01,49,5.80
2014,12,18,01,50,5.80
2014,12,18,01,51,5.80
2014,12,18,01,52,5.80
2014,12,18,01,53,5.80
2014,12,18,01,54,5.80
2014,12,18,01,55,5.80
2014,12,18,01,56,5.80
2014,12,18,01,57,5.80
2014,12,18,01,58,5.80
2014,12,18,01,59,5.80
2014,12,18,02,00,5.80
2014,12,18,02,01,5.80
2014,12,18,02,02,5.80
2014,12,18,02,03,5.80
2014,12,18,02,04,5.80
2014,12,18,02,05,5.80
2014,12,18,02,06,5.80
2014,12,18,02,07,5.80
2014,12,18,02,08,5.80
2014,12,18,02,09,5.80
2014,12,18,02,10,5.80
2014,12,18,02,11,5.80
2014,12,18,02,12,5.80
2014,12,18,02,13,5.80
2014,12,18,02,14,5.80
2014,12,18,02,15,5.70
2014,12,18,02,16,5.70
2014,12,18,02,17,5.70
2014,12,18,02,18,5.70
2014,12,18,02,19,5.70
2014,12,18,02,20,5.70
2014,12,18,02,21,5.70
2014,12,18,02,22,5.70
2014,12,18,02,23,5.70
2014,12,18,02,24,5.70
2014,12,18,02,25,5.70
2014,12,18,02,26,5.70
2014,12,18,02,27,5.70
2014,12,18,02,28,5.70
2014,12,18,02,29,5.60
2014,12,18,02,30,5.60
2014,12,18,02,31,5.60
2014,12,18,02,32,5.60
2014,12,18,02,33,5.60
2014,12,18,02,34,5.60
2014,12,18,02,35,5.60
2014,12,18,02,36,5.60
2014,12,18,02,37,5.60
2014,12,18,02,38,5.60
2014,12,18,02,39,5.60
2014,12,18,02,40,5.60
2014,12,18,02,41,5.60
2014,12,18,02,42,5.60
2014,12,18,02,43,5.60
2014,12,18,02,44,5.60
2014,12,18,02,45,5.60
2014,12,18,02,46,5.60
2014,12,18,02,47,5.60
2014,12,18,02,48,5.70
2014,12,18,02,49,5.70
2014,12,18,02,50,5.70
2014,12,18,02,51,5.70
2014,12,18,02,52,5.70
2014,12,18,02,53,5.70
2014,12,18,02,54,5.70
2014,12,18,02,55,5.70
2014,12,18,02,56,5.70
2014,12,18,02,57,5.70
2014,12,18,02,58,5.70
2014,12,18,02,59,5.70
2014,12,18,03,00,5.70
2014,12,18,03,01,5.70
2014,12,18,03,02,5.70
2014,12,18,03,03,5.70
2014,12,18,03,04,5.70
2014,12,18,03,05,5.70
2014,12,18,03,06,5.70
2014,12,18,03,07,5.70
2014,12,18,03,08,5.70
2014,12,18,03,09,5.70
2014,12,18,03,10,5.70
2014,12,18,03,11,5.70
2014,12,18,03,12,5.70
2014,12,18,03,13,5.70
2014,12,18,03,14,5.70
2014,12,18,03,15,5.70
2014,12,18,03,16,5.70
2014,12,18,03,17,5.70
2014,12,18,03,18,5.70
2014,12,18,03,19,5.70
2014,12,18,03,20,5.70
2014,12,18,03,21,5.70
2014,12,18,03,22,5.70
2014,12,18,03,23,5.70
2014,12,18,03,24,5.70
2014,12,18,03,25,5.70
2014,12,18,03,26,5.70
2014,12,18,03,27,5.70
2014,12,18,03,28,5.70
2014,12,18,03,29,5.70
2014,12,18,03,30,5.70
2014,12,18,03,31,5.80
2014,12,18,03,32,5.80
2014,12,18,03,33,5.80
2014,12,18,03,34,5.80
2014,12,18,03,35,5.80
2014,12,18,03,36,5.80
2014,12,18,03,37,5.80
2014,12,18,03,38,5.80
2014,12,18,03,39,5.80
2014,12,18,03,40,5.80
2014,12,18,03,41,5.80
2014,12,18,03,42,5.80
2014,12,18,03,43,5.80
2014,12,18,03,44,5.80
2014,12,18,03,45,5.80
2014,12,18,03,46,5.80
2014,12,18,03,47,5.80
2014,12,18,03,48,5.80
2014,12,18,03,49,5.80
2014,12,18,03,50,5.80
2014,12,18,03,51,5.80
2014,12,18,03,52,5.80
2014,12,18,03,53,5.80
2014,12,18,03,54,5.80
2014,12,18,03,55,5.80
2014,12,18,03,56,5.80
2014,12,18,03,57,5.80
2014,12,18,03,58,5.80
2014,12,18,03,59,5.80
2014,12,18,04,00,5.80
2014,12,18,04,01,5.80
2014,12,18,04,02,5.80
2014,12,18,04,03,5.80
2014,12,18,04,04,5.80
2014,12,18,04,05,5.80
2014,12,18,04,06,5.80
2014,12,18,04,07,5.80
2014,12,18,04,08,5.80
2014,12,18,04,09,5.80
2014,12,18,04,10,5.90
2014,12,18,04,11,5.90
2014,12,18,04,12,5.90
2014,12,18,04,13,5.90
2014,12,18,04,14,5.90
2014,12,18,04,15,5.90
2014,12,18,04,16,5.90
2014,12,18,04,17,5.90
2014,12,18,04,18,5.90
2014,12,18,04,19,5.90
2014,12,18,04,20,5.90
2014,12,18,04,21,5.90
2014,12,18,04,22,5.90
2014,12,18,04,23,5.90
2014,12,18,04,24,5.90
2014,12,18,04,25,5.90
2014,12,18,04,26,5.90
2014,12,18,04,27,6.00
2014,12,18,04,28,6.00
2014,12,18,04,29,6.00
2014,12,18,04,30,6.00
2014,12,18,04,31,6.00
2014,12,18,04,32,6.00
2014,12,18,04,33,6.00
2014,12,18,04,34,6.00
2014,12,18,04,35,6.00
2014,12,18,04,36,6.00
2014,12,18,04,37,6.00
2014,12,18,04,38,6.00
2014,12,18,04,39,6.00
2014,12,18,04,40,6.00
2014,12,18,04,41,6.00
2014,12,18,04,42,6.00
2014,12,18,04,43,6.00
2014,12,18,04,44,6.00
2014,12,18,04,45,6.00
2014,12,18,04,46,6.00
2014,12,18,04,47,6.10
2014,12,18,04,48,6.10
2014,12,18,04,49,6.10
2014,12,18,04,50,6.10
2014,12,18,04,51,6.10
2014,12,18,04,52,6.10
2014,12,18,04,53,6.10
2014,12,18,04,54,6.10
2014,12,18,04,55,6.10
2014,12,18,04,56,6.10
2014,12,18,04,57,6.10
2014,12,18,04,58,6.10
2014,12,18,04,59,6.10
2014,12,18,05,00,6.10
2014,12,18,05,01,6.10
2014,12,18,05,02,6.10
2014,12,18,05,03,6.10
2014,12,18,05,04,6.10
2014,12,18,05,05,6.10
2014,12,18,05,06,6.10
2014,12,18,05,07,6.10
2014,12,18,05,08,6.10
2014,12,18,05,09,6.10
2014,12,18,05,10,6.10
2014,12,18,05,11,6.10
2014,12,18,05,12,6.10
2014,12,18,05,13,6.10
2014,12,18,05,14,6.10
2014,12,18,05,15,6.10
2014,12,18,05,16,6.10
2014,12,18,05,17,6.10
2014,12,18,05,18,6.10
2014,12,18,05,19,6.20
2014,12,18,05,20,6.20
2014,12,18,05,21,6.20
2014,12,18,05,22,6.20
2014,12,18,05,23,6.20
2014,12,18,05,24,6.20
2014,12,18,05,25,6.20
2014,12,18,05,26,6.20
2014,12,18,05,27,6.20
2014,12,18,05,28,6.20
2014,12,18,05,29,6.20
2014,12,18,05,30,6.20
2014,12,18,05,31,6.20
2014,12,18,05,32,6.20
2014,12,18,05,33,6.20
2014,12,18,05,34,6.20
2014,12,18,05,35,6.20
2014,12,18,05,36,6.20
2014,12,18,05,37,6.20
2014,12,18,05,38,6.20
2014,12,18,05,39,6.20
2014,12,18,05,40,6.20
2014,12,18,05,41,6.20
2014,12,18,05,42,6.20
2014,12,18,05,43,6.20
2014,12,18,05,44,6.20
2014,12,18,05,45,6.20
2014,12,18,05,46,6.20
2014,12,18,05,47,6.30
2014,12,18,05,48,6.30
2014,12,18,05,49,6.30
2014,12,18,05,50,6.20
2014,12,18,05,51,6.20
2014,12,18,05,52,6.30
2014,12,18,05,53,6.30
2014,12,18,05,54,6.20
2014,12,18,05,55,6.20
2014,12,18,05,56,6.20
2014,12,18,05,57,6.20
2014,12,18,05,58,6.20
2014,12,18,05,59,6.20
2014,12,18,06,00,6.20
2014,12,18,06,01,6.20
2014,12,18,06,02,6.20
2014,12,18,06,03,6.20
2014,12,18,06,04,6.20
2014,12,18,06,05,6.20
2014,12,18,06,06,6.20
2014,12,18,06,07,6.20
2014,12,18,06,08,6.20
2014,12,18,06,09,6.20
2014,12,18,06,10,6.20
2014,12,18,06,11,6.20
2014,12,18,06,12,6.20
2014,12,18,06,13,6.10
2014,12,18,06,14,6.10
2014,12,18,06,15,6.10
2014,12,18,06,16,6.10
2014,12,18,06,17,6.10
2014,12,18,06,18,6.10
2014,12,18,06,19,6.10
2014,12,18,06,20,6.10
2014,12,18,06,21,6.10
2014,12,18,06,22,6.10
2014,12,18,06,23,6.10
2014,12,18,06,24,6.10
2014,12,18,06,25,6.10
2014,12,18,06,26,6.10
2014,12,18,06,27,6.10
2014,12,18,06,28,6.10
2014,12,18,06,29,6.10
2014,12,18,06,30,6.10
2014,12,18,06,31,6.10
2014,12,18,06,32,6.20
2014,12,18,06,33,6.20
2014,12,18,06,34,6.10
2014,12,18,06,35,6.20
2014,12,18,06,36,6.20
2014,12,18,06,37,6.20
2014,12,18,06,38,6.20
2014,12,18,06,39,6.20
2014,12,18,06,40,6.20
2014,12,18,06,41,6.20
2014,12,18,06,42,6.20
2014,12,18,06,43,6.20
2014,12,18,06,44,6.20
2014,12,18,06,45,6.20
2014,12,18,06,46,6.20
2014,12,18,06,47,6.20
2014,12,18,06,48,6.20
2014,12,18,06,49,6.30
2014,12,18,06,50,6.30
2014,12,18,06,51,6.30
2014,12,18,06,52,6.30
2014,12,18,06,53,6.30
2014,12,18,06,54,6.30
2014,12,18,06,55,6.30
2014,12,18,06,56,6.30
2014,12,18,06,57,6.30
2014,12,18,06,58,6.30
2014,12,18,06,59,6.30
2014,12,18,07,00,6.30
2014,12,18,07,01,6.30
2014,12,18,07,02,6.30
2014,12,18,07,03,6.30
2014,12,18,07,04,6.30
2014,12,18,07,05,6.30
2014,12,18,07,06,6.30
2014,12,18,07,07,6.30
2014,12,18,07,08,6.30
2014,12,18,07,09,6.30
2014,12,18,07,10,6.30
2014,12,18,07,11,6.30
2014,12,18,07,12,6.30
2014,12,18,07,13,6.30
2014,12,18,07,14,6.30
2014,12,18,07,15,6.30
2014,12,18,07,16,6.30
2014,12,18,07,17,6.30
2014,12,18,07,18,6.30
2014,12,18,07,19,6.30
2014,12,18,07,20,6.30
2014,12,18,07,21,6.30
2014,12,18,07,22,6.30
2014,12,18,07,23,6.30
2014,12,18,07,24,6.30
2014,12,18,07,25,6.30
2014,12,18,07,26,6.30
2014,12,18,07,27,6.30
2014,12,18,07,28,6.30
2014,12,18,07,29,6.30
2014,12,18,07,30,6.30
2014,12,18,07,31,6.30
2014,12,18,07,32,6.30
2014,12,18,07,33,6.30
2014,12,18,07,34,6.30
2014,12,18,07,35,6.30
2014,12,18,07,36,6.30
2014,12,18,07,37,6.30
2014,12,18,07,38,6.30
2014,12,18,07,39,6.30
2014,12,18,07,40,6.30
2014,12,18,07,41,6.30
2014,12,18,07,42,6.30
2014,12,18,07,43,6.30
2014,12,18,07,44,6.30
2014,12,18,07,45,6.30
2014,12,18,07,46,6.30
2014,12,18,07,47,6.30
2014,12,18,07,48,6.30
2014,12,18,07,49,6.30
2014,12,18,07,50,6.30
2014,12,18,07,51,6.30
2014,12,18,07,52,6.30
2014,12,18,07,53,6.30
2014,12,18,07,54,6.30
2014,12,18,07,55,6.30
2014,12,18,07,56,6.30
2014,12,18,07,57,6.40
2014,12,18,07,58,6.40
2014,12,18,07,59,6.40
2014,12,18,08,00,6.30
2014,12,18,08,01,6.30
2014,12,18,08,02,6.30
2014,12,18,08,03,6.30
2014,12,18,08,04,6.40
2014,12,18,08,05,6.40
2014,12,18,08,06,6.40
2014,12,18,08,07,6.40
2014,12,18,08,08,6.40
2014,12,18,08,09,6.40
2014,12,18,08,10,6.40
2014,12,18,08,11,6.40
2014,12,18,08,12,6.40
2014,12,18,08,13,6.40
2014,12,18,08,14,6.40
2014,12,18,08,15,6.40
2014,12,18,08,16,6.40
2014,12,18,08,17,6.40
2014,12,18,08,18,6.40
2014,12,18,08,19,6.40
2014,12,18,08,20,6.40
2014,12,18,08,21,6.40
2014,12,18,08,22,6.40
2014,12,18,08,23,6.40
2014,12,18,08,24,6.40
2014,12,18,08,25,6.40
2014,12,18,08,26,6.40
2014,12,18,08,27,6.40
2014,12,18,08,28,6.40
2014,12,18,08,29,6.40
2014,12,18,08,30,6.40
2014,12,18,08,31,6.40
2014,12,18,08,32,6.40
2014,12,18,08,33,6.40
2014,12,18,08,34,6.40
2014,12,18,08,35,6.40
2014,12,18,08,36,6.40
2014,12,18,08,37,6.40
2014,12,18,08,38,6.40
2014,12,18,08,39,6.40
2014,12,18,08,40,6.40
2014,12,18,08,41,6.40
2014,12,18,08,42,6.40
2014,12,18,08,43,6.40
2014,12,18,08,44,6.40
2014,12,18,08,45,6.40
2014,12,18,08,46,6.40
2014,12,18,08,47,6.40
2014,12,18,08,48,6.40
2014,12,18,08,49,6.40
2014,12,18,08,50,6.40
2014,12,18,08,51,6.50
2014,12,18,08,52,6.50
2014,12,18,08,53,6.50
2014,12,18,08,54,6.50
2014,12,18,08,55,6.50
2014,12,18,08,56,6.50
2014,12,18,08,57,6.50
2014,12,18,08,58,6.50
2014,12,18,08,59,6.50
2014,12,18,09,00,6.50
2014,12,18,09,01,6.50
2014,12,18,09,02,6.50
2014,12,18,09,03,6.50
2014,12,18,09,04,6.50
2014,12,18,09,05,6.50
2014,12,18,09,06,6.50
2014,12,18,09,07,6.50
2014,12,18,09,08,6.50
2014,12,18,09,09,6.50
2014,12,18,09,10,6.50
2014,12,18,09,11,6.50
2014,12,18,09,12,6.50
2014,12,18,09,13,6.60
2014,12,18,09,14,6.60
2014,12,18,09,15,6.60
2014,12,18,09,16,6.60
2014,12,18,09,17,6.60
2014,12,18,09,18,6.60
2014,12,18,09,19,6.60
2014,12,18,09,20,6.60
2014,12,18,09,21,6.60
2014,12,18,09,22,6.60
2014,12,18,09,23,6.60
2014,12,18,09,24,6.60
2014,12,18,09,25,6.60
2014,12,18,09,26,6.70
2014,12,18,09,27,6.70
2014,12,18,09,28,6.70
2014,12,18,09,29,6.70
2014,12,18,09,30,6.70
2014,12,18,09,31,6.70
2014,12,18,09,32,6.70
2014,12,18,09,33,6.70
2014,12,18,09,34,6.70
2014,12,18,09,35,6.70
2014,12,18,09,36,6.70
2014,12,18,09,37,6.70
2014,12,18,09,38,6.70
2014,12,18,09,39,6.70
2014,12,18,09,40,6.70
2014,12,18,09,41,6.70
2014,12,18,09,42,6.70
2014,12,18,09,43,6.70
2014,12,18,09,44,6.70
2014,12,18,09,45,6.70
2014,12,18,09,46,6.70
2014,12,18,09,47,6.70
2014,12,18,09,48,6.70
2014,12,18,09,49,6.70
2014,12,18,09,50,6.80
2014,12,18,09,51,6.80
2014,12,18,09,52,6.80
2014,12,18,09,53,6.80
2014,12,18,09,54,6.80
2014,12,18,09,55,6.80
2014,12,18,09,56,6.80
2014,12,18,09,57,6.80
2014,12,18,09,58,6.80
2014,12,18,09,59,6.80
2014,12,18,10,00,6.80
2014,12,18,10,01,6.80
2014,12,18,10,02,6.80
2014,12,18,10,03,6.80
2014,12,18,10,04,6.80
2014,12,18,10,05,6.80
2014,12,18,10,06,6.80
2014,12,18,10,07,6.80
2014,12,18,10,08,6.80
2014,12,18,10,09,6.80
2014,12,18,10,10,6.90
2014,12,18,10,11,6.90
2014,12,18,10,12,6.90
2014,12,18,10,13,6.90
2014,12,18,10,14,6.90
2014,12,18,10,15,7.00
2014,12,18,10,16,7.00
2014,12,18,10,17,7.00
2014,12,18,10,18,7.00
2014,12,18,10,19,7.10
2014,12,18,10,20,7.10
2014,12,18,10,21,7.10
2014,12,18,10,22,7.10
2014,12,18,10,23,7.10
2014,12,18,10,24,7.10
2014,12,18,10,25,7.10
2014,12,18,10,26,7.10
2014,12,18,10,27,7.10
2014,12,18,10,28,7.10
2014,12,18,10,29,7.10
2014,12,18,10,30,7.10
2014,12,18,10,31,7.10
2014,12,18,10,32,7.10
2014,12,18,10,33,7.10
2014,12,18,10,34,7.10
2014,12,18,10,35,7.10
2014,12,18,10,36,7.10
2014,12,18,10,37,7.10
2014,12,18,10,38,7.10
2014,12,18,10,39,7.10
2014,12,18,10,40,7.10
2014,12,18,10,41,7.10
2014,12,18,10,42,7.10
2014,12,18,10,43,7.10
2014,12,18,10,44,7.10
2014,12,18,10,45,7.10
2014,12,18,10,46,7.10
2014,12,18,10,47,7.10
2014,12,18,10,48,7.10
2014,12,18,10,49,7.10
2014,12,18,10,50,7.10
2014,12,18,10,51,7.10
2014,12,18,10,52,7.10
2014,12,18,10,53,7.10
2014,12,18,10,54,7.10
2014,12,18,10,55,7.10
2014,12,18,10,56,7.10
2014,12,18,10,57,7.10
2014,12,18,10,58,7.10
2014,12,18,10,59,7.10
2014,12,18,11,00,7.10
2014,12,18,11,01,7.10
2014,12,18,11,02,7.20
2014,12,18,11,03,7.20
2014,12,18,11,04,7.20
2014,12,18,11,05,7.20
2014,12,18,11,06,7.20
2014,12,18,11,07,7.20
2014,12,18,11,08,7.20
2014,12,18,11,09,7.20
2014,12,18,11,10,7.20
2014,12,18,11,11,7.20
2014,12,18,11,12,7.20
2014,12,18,11,13,7.20
2014,12,18,11,14,7.20
2014,12,18,11,15,7.20
2014,12,18,11,16,7.20
2014,12,18,11,17,7.10
2014,12,18,11,18,7.10
2014,12,18,11,19,7.10
2014,12,18,11,20,7.10
2014,12,18,11,21,7.10
2014,12,18,11,22,7.10
2014,12,18,11,23,7.10
2014,12,18,11,24,7.10
2014,12,18,11,25,7.10
2014,12,18,11,26,7.10
2014,12,18,11,27,7.10
2014,12,18,11,28,7.10
2014,12,18,11,29,7.10
2014,12,18,11,30,7.10
2014,12,18,11,31,7.10
2014,12,18,11,32,7.10
2014,12,18,11,33,7.10
2014,12,18,11,34,7.00
2014,12,18,11,35,7.00
2014,12,18,11,36,7.00
2014,12,18,11,37,7.00
2014,12,18,11,38,7.00
2014,12,18,11,39,7.00
2014,12,18,11,40,7.00
2014,12,18,11,41,7.00
2014,12,18,11,42,7.00
2014,12,18,11,43,7.00
2014,12,18,11,44,7.00
2014,12,18,11,45,7.00
2014,12,18,11,46,7.00
2014,12,18,11,47,7.00
2014,12,18,11,48,7.00
2014,12,18,11,49,7.00
2014,12,18,11,50,7.00
2014,12,18,11,51,6.90
2014,12,18,11,52,7.00
2014,12,18,11,53,7.00
2014,12,18,11,54,7.00
2014,12,18,11,55,7.00
2014,12,18,11,56,7.00
2014,12,18,11,57,7.00
2014,12,18,11,58,7.00
2014,12,18,11,59,7.00
2014,12,18,12,00,7.00
2014,12,18,12,01,7.00
2014,12,18,12,02,7.00
2014,12,18,12,03,7.00
2014,12,18,12,04,7.00
2014,12,18,12,05,7.00
2014,12,18,12,06,7.00
2014,12,18,12,07,7.00
2014,12,18,12,08,7.00
2014,12,18,12,09,7.00
2014,12,18,12,10,7.00
2014,12,18,12,11,7.00
2014,12,18,12,12,7.00
2014,12,18,12,13,7.00
2014,12,18,12,14,7.00
2014,12,18,12,15,7.10
2014,12,18,12,16,7.10
2014,12,18,12,17,7.10
2014,12,18,12,18,7.10
2014,12,18,12,19,7.10
2014,12,18,12,20,7.10
2014,12,18,12,21,7.10
2014,12,18,12,22,7.10
2014,12,18,12,23,7.10
2014,12,18,12,24,7.10
2014,12,18,12,25,7.10
2014,12,18,12,26,7.10
2014,12,18,12,27,7.10
2014,12,18,12,28,7.10
2014,12,18,12,29,7.10
2014,12,18,12,30,7.10
2014,12,18,12,31,7.10
2014,12,18,12,32,7.10
2014,12,18,12,33,7.10
2014,12,18,12,34,7.10
2014,12,18,12,35,7.10
2014,12,18,12,36,7.10
2014,12,18,12,37,7.10
2014,12,18,12,38,7.10
2014,12,18,12,39,7.10
2014,12,18,12,40,7.10
2014,12,18,12,41,7.10
2014,12,18,12,42,7.10
2014,12,18,12,43,7.10
2014,12,18,12,44,7.10
2014,12,18,12,45,7.10
2014,12,18,12,46,7.10
2014,12,18,12,47,7.10
2014,12,18,12,48,7.10
2014,12,18,12,49,7.10
2014,12,18,12,50,7.10
2014,12,18,12,51,7.10
2014,12,18,12,52,7.10
2014,12,18,12,53,7.10
2014,12,18,12,54,7.10
2014,12,18,12,55,7.10
2014,12,18,12,56,7.10
2014,12,18,12,57,7.10
2014,12,18,12,58,7.10
2014,12,18,12,59,7.10
2014,12,18,13,00,7.10
2014,12,18,13,01,7.10
2014,12,18,13,02,7.10
2014,12,18,13,03,7.10
2014,12,18,13,04,7.10
2014,12,18,13,05,7.10
2014,12,18,13,06,7.10
2014,12,18,13,07,7.10
2014,12,18,13,08,7.10
2014,12,18,13,09,7.10
2014,12,18,13,10,7.10
2014,12,18,13,11,7.10
2014,12,18,13,12,7.10
2014,12,18,13,13,7.10
2014,12,18,13,14,7.10
2014,12,18,13,15,7.10
2014,12,18,13,16,7.10
2014,12,18,13,17,7.20
2014,12,18,13,18,7.20
2014,12,18,13,19,7.20
2014,12,18,13,20,7.20
2014,12,18,13,21,7.20
2014,12,18,13,22,7.20
2014,12,18,13,23,7.20
2014,12,18,13,24,7.20
2014,12,18,13,25,7.20
2014,12,18,13,26,7.20
2014,12,18,13,27,7.20
2014,12,18,13,28,7.20
2014,12,18,13,29,7.20
2014,12,18,13,30,7.20
2014,12,18,13,31,7.20
2014,12,18,13,32,7.20
2014,12,18,13,33,7.20
2014,12,18,13,34,7.20
2014,12,18,13,35,7.20
2014,12,18,13,36,7.20
2014,12,18,13,37,7.20
2014,12,18,13,38,7.30
2014,12,18,13,39,7.30
2014,12,18,13,40,7.30
2014,12,18,13,41,7.30
2014,12,18,13,42,7.30
2014,12,18,13,43,7.30
2014,12,18,13,44,7.30
2014,12,18,13,45,7.30
2014,12,18,13,46,7.30
2014,12,18,13,47,7.30
2014,12,18,13,48,7.30
2014,12,18,13,49,7.30
2014,12,18,13,50,7.30
2014,12,18,13,51,7.30
2014,12,18,13,52,7.30
2014,12,18,13,53,7.30
2014,12,18,13,54,7.30
2014,12,18,13,55,7.30
2014,12,18,13,56,7.30
2014,12,18,13,57,7.30
2014,12,18,13,58,7.30
2014,12,18,13,59,7.30
2014,12,18,14,00,7.30
2014,12,18,14,01,7.30
2014,12,18,14,02,7.30
2014,12,18,14,03,7.40
2014,12,18,14,04,7.40
2014,12,18,14,05,7.30
2014,12,18,14,06,7.30
2014,12,18,14,07,7.40
2014,12,18,14,08,7.40
2014,12,18,14,09,7.40
2014,12,18,14,10,7.40
2014,12,18,14,11,7.40
2014,12,18,14,12,7.40
2014,12,18,14,13,7.40
2014,12,18,14,14,7.40
2014,12,18,14,15,7.40
2014,12,18,14,16,7.40
2014,12,18,14,17,7.40
2014,12,18,14,18,7.40
2014,12,18,14,19,7.40
2014,12,18,14,20,7.40
2014,12,18,14,21,7.40
2014,12,18,14,22,7.40
2014,12,18,14,23,7.40
2014,12,18,14,24,7.40
2014,12,18,14,25,7.40
2014,12,18,14,26,7.40
2014,12,18,14,27,7.40
2014,12,18,14,28,7.40
2014,12,18,14,29,7.40
2014,12,18,14,30,7.40
2014,12,18,14,31,7.40
2014,12,18,14,32,7.40
2014,12,18,14,33,7.40
2014,12,18,14,34,7.40
2014,12,18,14,35,7.40
2014,12,18,14,36,7.40
2014,12,18,14,37,7.40
2014,12,18,14,38,7.40
2014,12,18,14,39,7.40
2014,12,18,14,40,7.40
2014,12,18,14,41,7.40
2014,12,18,14,42,7.40
2014,12,18,14,43,7.40
2014,12,18,14,44,7.40
2014,12,18,14,45,7.40
2014,12,18,14,46,7.40
2014,12,18,14,47,7.40
2014,12,18,14,48,7.40
2014,12,18,14,49,7.50
2014,12,18,14,50,7.50
2014,12,18,14,51,7.50
2014,12,18,14,52,7.50
2014,12,18,14,53,7.50
2014,12,18,14,54,7.50
2014,12,18,14,55,7.50
2014,12,18,14,56,7.50
2014,12,18,14,57,7.50
2014,12,18,14,58,7.50
2014,12,18,14,59,7.50
2014,12,18,15,00,7.50
2014,12,18,15,01,7.50
2014,12,18,15,02,7.50
2014,12,18,15,03,7.50
2014,12,18,15,04,7.50
2014,12,18,15,05,7.50
2014,12,18,15,06,7.50
2014,12,18,15,07,7.50
2014,12,18,15,08,7.50
2014,12,18,15,09,7.50
2014,12,18,15,10,7.50
2014,12,18,15,11,7.50
2014,12,18,15,12,7.50
2014,12,18,15,13,7.50
2014,12,18,15,14,7.50
2014,12,18,15,15,7.50
2014,12,18,15,16,7.50
2014,12,18,15,17,7.50
2014,12,18,15,18,7.50
2014,12,18,15,19,7.50
2014,12,18,15,20,7.50
2014,12,18,15,21,7.50
2014,12,18,15,22,7.50
2014,12,18,15,23,7.50
2014,12,18,15,24,7.50
2014,12,18,15,25,7.50
2014,12,18,15,26,7.50
2014,12,18,15,27,7.50
2014,12,18,15,28,7.50
2014,12,18,15,29,7.50
2014,12,18,15,30,7.50
2014,12,18,15,31,7.50
2014,12,18,15,32,7.50
2014,12,18,15,33,7.50
2014,12,18,15,34,7.50
2014,12,18,15,35,7.50
2014,12,18,15,36,7.50
2014,12,18,15,37,7.50
2014,12,18,15,38,7.50
2014,12,18,15,39,7.50
2014,12,18,15,40,7.60
2014,12,18,15,41,7.50
2014,12,18,15,42,7.60
2014,12,18,15,43,7.60
2014,12,18,15,44,7.60
2014,12,18,15,45,7.60
2014,12,18,15,46,7.60
2014,12,18,15,47,7.60
2014,12,18,15,48,7.60
2014,12,18,15,49,7.60
2014,12,18,15,50,7.60
2014,12,18,15,51,7.60
2014,12,18,15,52,7.60
2014,12,18,15,53,7.60
2014,12,18,15,54,7.60
2014,12,18,15,55,7.60
2014,12,18,15,56,7.60
2014,12,18,15,57,7.60
2014,12,18,15,58,7.60
2014,12,18,15,59,7.60
2014,12,18,16,00,7.60
2014,12,18,16,01,7.60
2014,12,18,16,02,7.60
2014,12,18,16,03,7.60
2014,12,18,16,04,7.60
2014,12,18,16,05,7.60
2014,12,18,16,06,7.60
2014,12,18,16,07,7.70
2014,12,18,16,08,7.60
2014,12,18,16,09,7.70
2014,12,18,16,10,7.70
2014,12,18,16,11,7.60
2014,12,18,16,12,7.70
2014,12,18,16,13,7.60
2014,12,18,16,14,7.60
2014,12,18,16,15,7.60
2014,12,18,16,16,7.60
2014,12,18,16,17,7.60
2014,12,18,16,18,7.60
2014,12,18,16,19,7.60
2014,12,18,16,20,7.60
2014,12,18,16,21,7.60
2014,12,18,16,22,7.60
2014,12,18,16,23,7.60
2014,12,18,16,24,7.60
2014,12,18,16,25,7.60
2014,12,18,16,26,7.60
2014,12,18,16,27,7.60
2014,12,18,16,28,7.60
2014,12,18,16,29,7.60
2014,12,18,16,30,7.60
2014,12,18,16,31,7.60
2014,12,18,16,32,7.60
2014,12,18,16,33,7.60
2014,12,18,16,34,7.60
2014,12,18,16,35,7.60
2014,12,18,16,36,7.60
2014,12,18,16,37,7.60
2014,12,18,16,38,7.60
2014,12,18,16,39,7.60
2014,12,18,16,40,7.60
2014,12,18,16,41,7.60
2014,12,18,16,42,7.60
2014,12,18,16,43,7.60
2014,12,18,16,44,7.60
2014,12,18,16,45,7.60
2014,12,18,16,46,7.60
2014,12,18,16,47,7.50
2014,12,18,16,48,7.60
2014,12,18,16,49,7.50
2014,12,18,16,50,7.60
2014,12,18,16,51,7.50
2014,12,18,16,52,7.50
2014,12,18,16,53,7.50
2014,12,18,16,54,7.50
2014,12,18,16,55,7.50
2014,12,18,16,56,7.50
2014,12,18,16,57,7.50
2014,12,18,16,58,7.50
2014,12,18,16,59,7.50
2014,12,18,17,00,7.50
2014,12,18,17,01,7.50
2014,12,18,17,02,7.50
2014,12,18,17,03,7.50
2014,12,18,17,04,7.50
2014,12,18,17,05,7.50
2014,12,18,17,06,7.50
2014,12,18,17,07,7.50
2014,12,18,17,08,7.50
2014,12,18,17,09,7.50
2014,12,18,17,10,7.50
2014,12,18,17,11,7.50
2014,12,18,17,12,7.50
2014,12,18,17,13,7.50
2014,12,18,17,14,7.50
2014,12,18,17,15,7.50
2014,12,18,17,16,7.50
2014,12,18,17,17,7.50
2014,12,18,17,18,7.50
2014,12,18,17,19,7.50
2014,12,18,17,20,7.50
2014,12,18,17,21,7.50
2014,12,18,17,22,7.50
2014,12,18,17,23,7.50
2014,12,18,17,24,7.50
2014,12,18,17,25,7.50
2014,12,18,17,26,7.50
2014,12,18,17,27,7.50
2014,12,18,17,28,7.50
2014,12,18,17,29,7.50
2014,12,18,17,30,7.50
2014,12,18,17,31,7.50
2014,12,18,17,32,7.40
2014,12,18,17,33,7.40
2014,12,18,17,34,7.50
2014,12,18,17,35,7.40
2014,12,18,17,36,7.40
2014,12,18,17,37,7.40
2014,12,18,17,38,7.40
2014,12,18,17,39,7.40
2014,12,18,17,40,7.40
2014,12,18,17,41,7.50
2014,12,18,17,42,7.40
2014,12,18,17,43,7.40
2014,12,18,17,44,7.40
2014,12,18,17,45,7.40
2014,12,18,17,46,7.40
2014,12,18,17,47,7.40
2014,12,18,17,48,7.50
2014,12,18,17,49,7.40
2014,12,18,17,50,7.40
2014,12,18,17,51,7.40
2014,12,18,17,52,7.40
2014,12,18,17,53,7.40
2014,12,18,17,54,7.40
2014,12,18,17,55,7.40
2014,12,18,17,56,7.40
2014,12,18,17,57,7.40
2014,12,18,17,58,7.50
2014,12,18,17,59,7.40
2014,12,18,18,00,7.40
2014,12,18,18,01,7.40
2014,12,18,18,02,7.50
2014,12,18,18,03,7.50
2014,12,18,18,04,7.50
2014,12,18,18,05,7.40
2014,12,18,18,06,7.40